Regional Weather Roundup
Issued by NWS

Home | Current Version | Previous Version | Graphics & Text | Print | Product List | Glossary On
Versions: 1 2 3 4 5 6 7 8 9 10 11 12 13 14 15 16 17 18 19 20 21 22 23 24 25 26 27 28 29 30 31 32 33 34 35 36 37 38 39 40 41 42 43 44 45 46 47 48 49 50
059
ASUS43 KDTX 251001
RWRMI
MICHIGAN HOURLY REGIONAL WEATHER ROUNDUP
NATIONAL WEATHER SERVICE DETROIT/PONTIAC MI
500 AM EST SUN FEB 25 2018

NOTE: "FAIR" INDICATES FEW OR NO CLOUDS BELOW 12,000 FEET WITH NO
SIGNIFICANT WEATHER AND/OR OBSTRUCTION TO VISIBILITY.

MIZ047>049-052>055-059>063-066>070-074>076-081>083-251100-
SOUTHEAST LOWER MICHIGAN

CITY           SKY/WX    TMP DP  RH WIND       PRES   REMARKS
ADRIAN         MOCLDY    47  46  97 W10G20    29.53R
ALMA           CLOUDY    43  43 100 S14G22    29.41R FOG
ANN ARBOR      LGT RAIN  42  42 100 S7        29.49S FOG
BAD AXE        LGT SNOW  39  38  98 SE15G26   29.42F WCI  30
CARO           DRIZZLE   43  42  98 SE9G20    29.42S
DETROIT CITY   LGT RAIN  42  42 100 S7        29.49F FOG
DETROIT        FOG       45  44  97 S9        29.49F VSB 1
FLINT          LGT RAIN  43  42  97 S15G23    29.45R FOG
GROSSE ILE     CLOUDY    42  42  98 S14G20    29.48F FOG
HILLSDALE      CLOUDY    48  45  87 SW20G33   29.52R
HOWELL         CLOUDY    45  45 100 S12G18    29.46S FOG

CITY           SKY/WX    TMP DP  RH WIND       PRES   REMARKS
JACKSON        CLOUDY    49  48  97 SW20G25   29.48R
LAMBERTVILLE   DRIZZLE   49  48  97 SW12G18   29.51R
LANSING        CLOUDY    47  46  97 SW15      29.45R
LAPEER         LGT RAIN  42  42  98 S12       29.45F
MASON          CLOUDY    47  44  88 SW7       29.46R
MT. CLEMENS    LGT RAIN  40  40 100 SE15      29.47F FOG     WCI  32
PONTIAC        CLOUDY    39  39 100 SE9       29.46S FOG     WCI  33
PORT HOPE        N/A     37  36  96 SE17G39   29.41F WCI  27
PORT HURON     HVY RAIN  43  41  93 SE13G18   29.49F
TRI CITIES     CLOUDY    43  41  93 S20       29.39F FOG
MIDLAND        DRIZZLE   41  40  99 S5        29.39F
TROY           DRIZZLE   41  40  96 CALM      29.50F
SAGINAW HB     LGT RAIN  43  43 100 S15G24    29.41R
$$
MIZ043>046-050>051-056>058-064>065-071>073-077>080-251100-
SOUTHWEST LOWER MICHIGAN

CITY           SKY/WX    TMP DP  RH WIND       PRES   REMARKS
BATTLE CREEK     N/A    N/A N/A N/A MISG      29.54R
BENTON HARBOR  CLOUDY    36  31  82 W29G37    29.65R WCI  23
BIG RAPIDS     MIX PCPN  37  35  92 SW10G18   29.38S WCI  29
COLDWATER      CLOUDY    49  45  88 W26G39    29.56R
FREMONT        CLOUDY    39  36  89 W20G36    29.46R WCI  30
HOLLAND        CLOUDY    39  34  82 W28G37    29.56R WCI  28
GRAND RAPIDS   LGT RAIN  41  41 100 W37G46    29.50R FOG
IONIA          DRIZZLE   46  45  95 W44G56    29.45R
KALAMAZOO      CLOUDY    41  36  82 W32G44    29.59R
LUDINGTON      CLOUDY    38  37  99 SW22G29   29.41R WCI  27
MARSHALL       CLOUDY    47  42  85 W29G43    29.52R
MOUNT PLEASANT LGT RAIN  37  36  95 CALM      29.38F
MUSKEGON       CLOUDY    38  32  79 W29G37    29.52R WCI  26
SOUTH HAVEN    CLOUDY    37  32  81 W21G32    29.62R WCI  27
$$
MIZ016>042-251100-
NORTHERN LOWER MICHIGAN

CITY           SKY/WX    TMP DP  RH WIND       PRES   REMARKS
ALPENA         LGT RAIN  34  34 100 SE21G28   29.40F FOG     WCI  22
BEAVER ISLAND  LGT SNOW  34  33  97 SE7       29.30F WCI  28
BELLAIRE       LGT SNOW  37  36  96 S8G17     29.32S WCI  31
CADILLAC       DRIZZLE   35  35  99 S12G17    29.32F WCI  26
CHARLEVOIX     LGT RAIN  37  37 100 SE9       29.32F WCI  30
FRANKFORT      RAIN      40  40  98 S15G24    29.33R WCI  32
GAYLORD        RAIN      33  33 100 S12       29.32F FOG     WCI  24
GRAYLING       CLOUDY    34  34  98 SE9       29.32F WCI  27
HARBOR SPRINGS LGT RAIN  35  34  98 E3        29.32S
HOUGHTON LAKE  LGT RAIN  34  33  96 S8G22     29.35F WCI  27
MANISTEE       LGT RAIN  40  38  93 SW23G29   29.37R FOG     WCI  30
OSCODA         MIX PCPN  35  34  96 S9        29.39F WCI  27
PELLSTON       LGT SNOW  34  32  92 SE13G20   29.33F FOG     WCI  25
ROGERS CITY    MIX PCPN  33  32  96 SE16G24   29.36F WCI  23
TRAVERSE CITY  LGT RAIN  38  35  89 VRB5      29.30F WCI  34
$$
MIZ007>008-015-251100-
EASTERN UPPER MICHIGAN

CITY           SKY/WX    TMP DP  RH WIND       PRES   REMARKS
KINROSS        MIX PCPN  32  30  93 SE25G32   29.32F FOG     WCI  19
MACKINAC ISLAN LGT SNOW  32  32 100 SE5G24    29.36R WCI  27
NEWBERRY       LGT SNOW  32  31  97 SE18G25   29.29F VSB 1   WCI  20
S. S. MARIE    FRZ RAIN  34  31  88 SE21G35   29.31F FOG     WCI  22
MUNISING         N/A     33  33 100 S9G23     29.23F WCI  25
$$
MIZ004>006-011>014-085-251100-
CENTRAL UPPER MICHIGAN

CITY           SKY/WX    TMP DP  RH WIND       PRES   REMARKS
MANISTIQUE     LGT SNOW  32  30  94 SE7       29.29F VSB 1   WCI  25
ESCANABA       MIX PCPN  32  31  96 SE9       29.27F WCI  24
MENOMINEE      CLOUDY    33  32  96 SW8       29.30F WCI  26
SAWYER-GWINN   LGT SNOW  29  28  93 S10       29.23F WCI  20
$$
MIZ001>003-009>011-084-251100-
WESTERN UPPER MICHIGAN

CITY           SKY/WX    TMP DP  RH WIND       PRES   REMARKS
IRON MOUNTAIN  LGT SNOW  30  27  88 S5        29.24F FOG     WCI  25
HOUGHTON       LGT SNOW  28  25  88 SE10      29.22F FOG     WCI  19
COPPER HARBOR    N/A     30  28  92 S6        29.25F WCI  24
IRONWOOD       FLURRIES  29  27  92 SW14      29.24S WCI  18
$$

ABBREVIATIONS USED IN REMARKS
   TC - TEMPERATURE IN CELSIUS
  WCI - WIND CHILL INDEX
   HX - HEAT INDEX
  VSB - VISIBILITY





USA.gov is the U.S. government's official web portal to all federal, state and local government web resources and services.